| time (UTC) | temp F | wind direction | speed knots | gust knots | rain 1hr in | rain 24hr in | rain mn in | humidity % | barometer mb |
| 20260506003004 | 47 | 10 | 0.9 | 3.5 | 0.00 | 0.00 | 0.00 | 69 | 996.1 |
| 20260506002504 | 47 | 24 | 0.0 | 4.3 | 0.00 | 0.00 | 0.00 | 69 | 996.0 |
| 20260506002004 | 47 | 22 | 1.7 | 4.3 | 0.00 | 0.00 | 0.00 | 69 | 996.2 |
| 20260506001504 | 48 | 39 | 1.7 | 3.5 | 0.00 | 0.00 | 0.00 | 69 | 996.2 |
| 20260506001004 | 48 | 72 | 1.7 | 3.5 | 0.00 | 0.00 | 0.00 | 69 | 996.1 |
| 20260506000504 | 48 | 44 | 0.9 | 2.6 | 0.00 | 0.00 | 0.00 | 69 | 996.0 |
| 20260506000004 | 48 | 351 | 1.7 | 3.5 | 0.00 | 0.00 | 0.00 | 69 | 996.0 |
| 20260505235504 | 48 | 333 | 1.7 | 3.5 | 0.00 | 0.00 | 0.00 | 69 | 995.9 |
| 20260505235004 | 48 | 34 | 0.9 | 3.5 | 0.00 | 0.00 | 0.00 | 69 | 996.2 |
| 20260505234504 | 48 | 34 | 0.9 | 1.7 | 0.00 | 0.00 | 0.00 | 69 | 995.9 |
| 20260505234004 | 48 | 24 | 0.9 | 2.6 | 0.00 | 0.00 | 0.00 | 68 | 996.1 |
| 20260505233504 | 48 | 12 | 1.7 | 2.6 | 0.00 | 0.00 | 0.00 | 68 | 996.1 |
| 20260505233004 | 48 | 6 | 1.7 | 2.6 | 0.00 | 0.00 | 0.00 | 68 | 996.1 |
| 20260505232504 | 48 | 35 | 0.9 | 3.5 | 0.00 | 0.00 | 0.00 | 68 | 996.1 |
| 20260505232214 | 48 | 55 | 1.7 | 3.5 | 0.00 | 0.00 | 0.00 | 68 | 996.2 |
| 20260505231504 | 48 | 30 | 1.7 | 3.5 | 0.00 | 0.00 | 0.00 | 69 | 996.3 |
| 20260505231004 | 49 | 11 | 1.7 | 1.7 | 0.00 | 0.00 | 0.00 | 69 | 996.1 |
| 20260505230504 | 49 | 37 | 0.9 | 2.6 | 0.00 | 0.00 | 0.00 | 68 | 996.3 |
| 20260505230005 | 49 | 44 | 0.9 | 2.6 | 0.00 | 0.00 | 0.00 | 68 | 996.3 |
| 20260505225504 | 49 | 41 | 1.7 | 2.6 | 0.00 | 0.00 | 0.00 | 68 | 996.2 |
| 20260505225004 | 49 | 67 | 1.7 | 3.5 | 0.00 | 0.00 | 0.00 | 68 | 996.2 |
| 20260505224504 | 49 | 66 | 1.7 | 3.5 | 0.00 | 0.00 | 0.00 | 68 | 995.8 |
| 20260505224218 | 49 | 47 | 2.6 | 5.2 | 0.00 | 0.00 | 0.00 | 68 | 996.1 |
| 20260505223716 | 49 | 28 | 0.9 | 5.2 | 0.00 | 0.00 | 0.00 | 68 | 996.2 |
| 20260505223004 | 49 | 52 | 1.7 | 4.3 | 0.00 | 0.00 | 0.00 | 70 | 996.1 |
| 20260505222717 | 49 | 43 | 3.5 | 4.3 | 0.00 | 0.00 | 0.00 | 70 | 996.0 |
| 20260505222004 | 49 | 17 | 1.7 | 4.3 | 0.00 | 0.00 | 0.00 | 70 | 996.1 |
| 20260505221504 | 49 | 36 | 1.7 | 4.3 | 0.00 | 0.00 | 0.00 | 70 | 996.0 |
| 20260505221004 | 49 | 40 | 1.7 | 5.2 | 0.00 | 0.00 | 0.00 | 70 | 996.1 |
| 20260505220504 | 49 | 41 | 2.6 | 6.1 | 0.00 | 0.00 | 0.00 | 70 | 996.1 |
| 20260505220004 | 49 | 27 | 4.3 | 6.1 | 0.00 | 0.00 | 0.00 | 70 | 996.0 |
| 20260505215504 | 50 | 38 | 3.5 | 7.0 | 0.00 | 0.00 | 0.00 | 70 | 996.0 |
| 20260505215004 | 50 | 34 | 2.6 | 7.0 | 0.00 | 0.00 | 0.00 | 70 | 996.2 |
| 20260505214504 | 50 | 23 | 2.6 | 4.3 | 0.00 | 0.00 | 0.00 | 70 | 996.0 |
| 20260505214004 | 50 | 33 | 1.7 | 4.3 | 0.00 | 0.00 | 0.00 | 70 | 996.1 |
| 20260505213504 | 50 | 25 | 2.6 | 5.2 | 0.00 | 0.00 | 0.00 | 70 | 995.9 |
| 20260505213215 | 50 | 38 | 1.7 | 5.2 | 0.00 | 0.00 | 0.00 | 70 | 996.0 |
| 20260505212504 | 50 | 41 | 1.7 | 3.5 | 0.00 | 0.00 | 0.00 | 70 | 996.0 |
| 20260505212004 | 50 | 38 | 2.6 | 3.5 | 0.00 | 0.00 | 0.00 | 70 | 996.1 |
| 20260505211504 | 50 | 33 | 1.7 | 3.5 | 0.00 | 0.00 | 0.00 | 70 | 995.9 |
| 20260505211004 | 51 | 28 | 1.7 | 4.3 | 0.00 | 0.00 | 0.00 | 69 | 996.0 |
| 20260505210504 | 51 | 12 | 3.5 | 4.3 | 0.00 | 0.00 | 0.00 | 69 | 996.0 |
| 20260505210004 | 51 | 39 | 2.6 | 5.2 | 0.00 | 0.00 | 0.00 | 69 | 995.8 |
| 20260505205504 | 51 | 62 | 0.9 | 5.2 | 0.00 | 0.00 | 0.00 | 68 | 996.1 |
| 20260505205213 | 51 | 49 | 1.7 | 3.5 | 0.00 | 0.00 | 0.00 | 68 | 996.0 |
| 20260505204716 | 51 | 34 | 1.7 | 2.6 | 0.00 | 0.00 | 0.00 | 67 | 995.8 |
| 20260505204004 | 51 | 67 | 0.9 | 7.0 | 0.00 | 0.00 | 0.00 | 66 | 995.8 |
| 20260505203504 | 51 | 67 | 4.3 | 7.0 | 0.00 | 0.00 | 0.00 | 66 | 995.7 |
| 20260505203004 | 51 | 57 | 2.6 | 5.2 | 0.00 | 0.00 | 0.00 | 66 | 995.8 |
| 20260505202504 | 51 | 50 | 1.7 | 3.5 | 0.00 | 0.00 | 0.00 | 67 | 995.7 |
| 20260505202216 | 51 | 62 | 2.6 | 3.5 | 0.00 | 0.00 | 0.00 | 67 | 995.8 |
| 20260505201504 | 51 | 50 | 2.6 | 7.0 | 0.00 | 0.00 | 0.00 | 67 | 995.6 |
| 20260505201004 | 52 | 41 | 1.7 | 7.0 | 0.00 | 0.00 | 0.00 | 68 | 995.5 |
| 20260505200504 | 52 | 35 | 1.7 | 7.0 | 0.00 | 0.00 | 0.00 | 69 | 995.6 |
| 20260505200004 | 52 | 36 | 2.6 | 7.0 | 0.00 | 0.00 | 0.00 | 70 | 995.4 |
| 20260505195504 | 52 | 42 | 1.7 | 7.0 | 0.00 | 0.00 | 0.00 | 70 | 995.6 |
| 20260505195004 | 52 | 43 | 3.5 | 7.0 | 0.00 | 0.00 | 0.00 | 70 | 995.3 |
| 20260505194504 | 52 | 52 | 3.5 | 5.2 | 0.00 | 0.00 | 0.00 | 71 | 995.4 |
| 20260505194004 | 52 | 61 | 2.6 | 7.8 | 0.00 | 0.00 | 0.00 | 71 | 995.2 |
| 20260505193504 | 52 | 66 | 3.5 | 7.8 | 0.00 | 0.00 | 0.00 | 71 | 995.2 |
| 20260505193004 | 53 | 56 | 3.5 | 7.8 | 0.00 | 0.00 | 0.00 | 71 | 995.3 |
| 20260505192504 | 53 | 29 | 1.7 | 7.0 | 0.00 | 0.00 | 0.00 | 71 | 995.2 |
| 20260505192004 | 53 | 21 | 2.6 | 7.0 | 0.00 | 0.00 | 0.00 | 71 | 994.9 |
| 20260505191504 | 53 | 49 | 2.6 | 5.2 | 0.00 | 0.00 | 0.00 | 71 | 995.0 |
| 20260505191004 | 53 | 74 | 3.5 | 6.1 | 0.00 | 0.00 | 0.00 | 71 | 994.9 |
| 20260505190504 | 53 | 39 | 3.5 | 6.1 | 0.00 | 0.00 | 0.00 | 71 | 994.9 |
| 20260505190005 | 53 | 29 | 3.5 | 5.2 | 0.00 | 0.00 | 0.00 | 71 | 994.8 |
| 20260505185717 | 53 | 40 | 2.6 | 5.2 | 0.00 | 0.00 | 0.00 | 71 | 994.8 |
| 20260505185004 | 54 | 57 | 3.5 | 4.3 | 0.00 | 0.00 | 0.00 | 70 | 994.6 |
| 20260505184718 | 54 | 52 | 2.6 | 4.3 | 0.00 | 0.00 | 0.00 | 70 | 994.5 |
| 20260505184004 | 54 | 31 | 1.7 | 3.5 | 0.00 | 0.00 | 0.00 | 70 | 994.5 |
| 20260505183504 | 54 | 33 | 2.6 | 3.5 | 0.00 | 0.00 | 0.00 | 70 | 994.5 |
| 20260505183004 | 54 | 14 | 1.7 | 2.6 | 0.00 | 0.00 | 0.00 | 70 | 994.5 |
| 20260505182504 | 54 | 15 | 1.7 | 4.3 | 0.00 | 0.00 | 0.00 | 70 | 994.5 |
| 20260505182004 | 54 | 20 | 1.7 | 7.0 | 0.00 | 0.00 | 0.00 | 70 | 994.4 |
| 20260505181715 | 54 | 22 | 1.7 | 7.0 | 0.00 | 0.00 | 0.00 | 70 | 994.3 |
| 20260505181213 | 54 | 63 | 1.7 | 5.2 | 0.00 | 0.00 | 0.00 | 65 | 994.3 |
| 20260505180504 | 55 | 53 | 3.5 | 5.2 | 0.00 | 0.00 | 0.00 | 65 | 994.4 |
| 20260505180214 | 55 | 31 | 3.5 | 5.2 | 0.00 | 0.00 | 0.00 | 64 | 994.4 |
| 20260505175504 | 55 | 42 | 3.5 | 7.0 | 0.00 | 0.00 | 0.00 | 64 | 994.3 |
| 20260505175004 | 56 | 58 | 3.5 | 6.1 | 0.00 | 0.00 | 0.00 | 63 | 994.0 |
| 20260505174504 | 57 | 36 | 1.7 | 5.2 | 0.00 | 0.00 | 0.00 | 60 | 994.0 |
| 20260505174004 | 57 | 8 | 2.6 | 3.5 | 0.00 | 0.00 | 0.00 | 52 | 993.8 |
| 20260505173504 | 58 | 357 | 0.9 | 1.7 | 0.00 | 0.00 | 0.00 | 50 | 993.8 |
| 20260505173004 | 58 | 342 | 0.9 | 1.7 | 0.00 | 0.00 | 0.00 | 51 | 993.8 |
| 20260505172715 | 58 | 344 | 0.9 | 1.7 | 0.00 | 0.00 | 0.00 | 51 | 993.8 |
| 20260505172004 | 58 | 351 | 1.7 | 1.7 | 0.00 | 0.00 | 0.00 | 51 | 993.7 |
| 20260505171504 | 58 | 328 | 0.9 | 2.6 | 0.00 | 0.00 | 0.00 | 51 | 993.7 |
| 20260505171004 | 59 | 334 | 1.7 | 2.6 | 0.00 | 0.00 | 0.00 | 50 | 993.7 |
| 20260505170504 | 59 | 341 | 1.7 | 2.6 | 0.00 | 0.00 | 0.00 | 50 | 993.9 |
| 20260505170004 | 59 | 342 | 1.7 | 2.6 | 0.00 | 0.00 | 0.00 | 50 | 993.6 |
| 20260505165504 | 59 | 306 | 0.9 | 3.5 | 0.00 | 0.00 | 0.00 | 50 | 993.6 |
| 20260505165004 | 60 | 299 | 1.7 | 3.5 | 0.00 | 0.00 | 0.00 | 50 | 993.7 |
| 20260505164504 | 60 | 5 | 1.7 | 1.7 | 0.00 | 0.00 | 0.00 | 51 | 993.6 |
| 20260505164004 | 59 | 60 | 0.9 | 1.7 | 0.00 | 0.00 | 0.00 | 51 | 993.9 |
| 20260505163504 | 59 | 67 | 0.9 | 1.7 | 0.00 | 0.00 | 0.00 | 51 | 993.8 |
| 20260505163004 | 59 | 42 | 1.7 | 2.6 | 0.00 | 0.00 | 0.00 | 52 | 993.8 |
| 20260505162504 | 59 | 19 | 1.7 | 2.6 | 0.00 | 0.00 | 0.00 | 51 | 993.9 |
| 20260505162004 | 59 | 4 | 1.7 | 2.6 | 0.00 | 0.00 | 0.00 | 51 | 993.7 |
| 20260505161504 | 59 | 3 | 1.7 | 2.6 | 0.00 | 0.00 | 0.00 | 50 | 993.8 |
| 20260505161004 | 60 | 332 | 1.7 | 2.6 | 0.00 | 0.00 | 0.00 | 50 | 993.9 |
| 20260505160504 | 60 | 297 | 0.9 | 2.6 | 0.00 | 0.00 | 0.00 | 50 | 993.7 |
| 20260505153004 | 60 | 290 | 0.9 | 1.7 | 0.00 | 0.00 | 0.00 | 50 | 993.7 |
| 20260505152716 | 60 | 304 | 0.0 | 1.7 | 0.00 | 0.00 | 0.00 | 50 | 993.7 |
| 20260505152214 | 60 | 327 | 1.7 | 1.7 | 0.00 | 0.00 | 0.00 | 50 | 993.7 |
| 20260505151504 | 60 | 14 | 0.0 | 2.6 | 0.00 | 0.00 | 0.00 | 48 | 993.5 |
| 20260505151004 | 60 | 82 | 0.9 | 1.7 | 0.00 | 0.00 | 0.00 | 49 | 993.6 |
| 20260505150504 | 61 | 93 | 0.0 | 1.7 | 0.00 | 0.00 | 0.00 | 50 | 993.7 |
| 20260505140504 | 61 | 164 | 0.0 | 2.6 | 0.00 | 0.00 | 0.00 | 47 | 993.7 |
| 20260505125004 | 60 | 348 | 0.9 | 3.5 | 0.00 | 0.00 | 0.00 | 51 | 993.8 |
| 20260505124504 | 60 | 321 | 1.7 | 2.6 | 0.00 | 0.00 | 0.00 | 50 | 993.6 |
| 20260505124004 | 60 | 290 | 0.9 | 2.6 | 0.00 | 0.00 | 0.00 | 51 | 993.6 |
| 20260505123504 | 60 | 347 | 0.9 | 2.6 | 0.00 | 0.00 | 0.00 | 51 | 993.6 |
| 20260505123004 | 60 | 13 | 1.7 | 3.5 | 0.00 | 0.00 | 0.00 | 50 | 993.7 |
| 20260505122504 | 61 | 10 | 0.9 | 3.5 | 0.00 | 0.00 | 0.00 | 48 | 993.6 |
| 20260505122004 | 61 | 29 | 1.7 | 3.5 | 0.00 | 0.00 | 0.00 | 47 | 993.8 |
| 20260505121504 | 62 | 39 | 1.7 | 3.5 | 0.00 | 0.00 | 0.00 | 49 | 993.6 |
| 20260505121004 | 62 | 23 | 2.6 | 3.5 | 0.00 | 0.00 | 0.00 | 50 | 993.4 |
| 20260505120715 | 62 | 8 | 0.9 | 1.7 | 0.00 | 0.00 | 0.00 | 50 | 993.8 |
| 20260505120005 | 62 | 123 | 0.0 | 1.7 | 0.00 | 0.00 | 0.00 | 50 | 993.8 |
| 20260505115504 | 62 | 348 | 0.0 | 1.7 | 0.00 | 0.00 | 0.00 | 51 | 993.6 |
| 20260505115004 | 62 | 346 | 1.7 | 1.7 | 0.00 | 0.00 | 0.00 | 51 | 993.9 |
| 20260505114504 | 61 | 346 | 0.9 | 1.7 | 0.00 | 0.00 | 0.00 | 51 | 993.9 |
| 20260505114004 | 61 | 358 | 0.9 | 2.6 | 0.00 | 0.00 | 0.00 | 51 | 993.8 |
| 20260505113504 | 60 | 43 | 0.9 | 3.5 | 0.00 | 0.00 | 0.00 | 51 | 993.8 |
| 20260505113004 | 60 | 36 | 0.9 | 3.5 | 0.00 | 0.00 | 0.00 | 50 | 993.7 |
| 20260505112504 | 60 | 352 | 1.7 | 2.6 | 0.00 | 0.00 | 0.00 | 50 | 993.8 |
| 20260505112004 | 60 | 351 | 0.9 | 2.6 | 0.00 | 0.00 | 0.00 | 50 | 994.1 |
| 20260505111504 | 60 | 352 | 0.9 | 1.7 | 0.00 | 0.00 | 0.00 | 51 | 994.0 |
| 20260505111004 | 60 | 336 | 0.0 | 1.7 | 0.00 | 0.00 | 0.00 | 51 | 994.0 |
| 20260505110504 | 60 | 310 | 0.9 | 1.7 | 0.00 | 0.00 | 0.00 | 52 | 994.0 |
| 20260505102004 | 58 | 9 | 0.9 | 2.6 | 0.00 | 0.00 | 0.00 | 53 | 994.3 |
| 20260505101504 | 58 | 135 | 0.9 | 1.7 | 0.00 | 0.00 | 0.00 | 55 | 994.3 |
| 20260505101004 | 59 | 54 | 0.0 | 1.7 | 0.00 | 0.00 | 0.00 | 56 | 994.2 |
| 20260505100504 | 59 | 4 | 0.9 | 1.7 | 0.00 | 0.00 | 0.00 | 55 | 994.4 |
| 20260505100004 | 58 | 1 | 0.9 | 2.6 | 0.00 | 0.00 | 0.00 | 54 | 994.3 |
| 20260505095504 | 58 | 358 | 0.9 | 2.6 | 0.00 | 0.00 | 0.00 | 54 | 994.3 |
| 20260505095004 | 58 | 354 | 1.7 | 3.5 | 0.00 | 0.00 | 0.00 | 52 | 994.5 |
| 20260505094504 | 58 | 337 | 0.9 | 3.5 | 0.00 | 0.00 | 0.00 | 52 | 994.2 |
| 20260505094004 | 59 | 342 | 1.7 | 4.3 | 0.00 | 0.00 | 0.00 | 52 | 994.4 |
| 20260505093504 | 59 | 3 | 1.7 | 4.3 | 0.00 | 0.00 | 0.00 | 53 | 994.5 |
| 20260505093004 | 59 | 7 | 1.7 | 3.5 | 0.00 | 0.00 | 0.00 | 54 | 994.6 |
| 20260505092504 | 59 | 358 | 2.6 | 4.3 | 0.00 | 0.00 | 0.00 | 54 | 994.6 |
| 20260505092004 | 58 | 10 | 1.7 | 4.3 | 0.00 | 0.00 | 0.00 | 55 | 994.6 |
| 20260505091504 | 58 | 35 | 1.7 | 5.2 | 0.00 | 0.00 | 0.00 | 55 | 994.6 |
| 20260505091004 | 58 | 34 | 0.9 | 5.2 | 0.00 | 0.00 | 0.00 | 56 | 994.6 |
| 20260505090504 | 57 | 9 | 0.9 | 4.3 | 0.00 | 0.00 | 0.00 | 56 | 994.6 |
| 20260505090004 | 57 | 4 | 2.6 | 3.5 | 0.00 | 0.00 | 0.00 | 57 | 994.7 |
| 20260505085504 | 57 | 354 | 2.6 | 3.5 | 0.00 | 0.00 | 0.00 | 58 | 994.5 |
| 20260505085004 | 57 | 357 | 1.7 | 3.5 | 0.00 | 0.00 | 0.00 | 59 | 994.6 |
| 20260505084504 | 56 | 344 | 1.7 | 2.6 | 0.00 | 0.00 | 0.00 | 60 | 994.6 |
| 20260505084217 | 56 | 340 | 1.7 | 2.6 | 0.00 | 0.00 | 0.00 | 61 | 994.7 |
| 20260505083504 | 56 | 13 | 0.9 | 2.6 | 0.00 | 0.00 | 0.00 | 63 | 994.8 |
| 20260505083004 | 56 | 24 | 1.7 | 3.5 | 0.00 | 0.00 | 0.00 | 64 | 994.7 |
| 20260505082504 | 55 | 27 | 1.7 | 3.5 | 0.00 | 0.00 | 0.00 | 66 | 994.8 |
| 20260505082214 | 55 | 33 | 1.7 | 3.5 | 0.00 | 0.00 | 0.00 | 67 | 994.9 |
| 20260505081504 | 55 | 313 | 1.7 | 1.7 | 0.00 | 0.00 | 0.00 | 71 | 994.9 |
| 20260505081215 | 54 | 233 | 0.0 | 1.7 | 0.00 | 0.00 | 0.00 | 75 | 994.9 |
| 20260505080504 | 54 | 199 | 0.9 | 1.7 | 0.00 | 0.00 | 0.00 | 79 | 995.0 |
| 20260505080004 | 54 | 211 | 0.0 | 1.7 | 0.00 | 0.00 | 0.00 | 82 | 995.0 |
| 20260505075504 | 53 | 216 | 0.9 | 1.7 | 0.00 | 0.00 | 0.00 | 87 | 995.1 |
| 20260505075004 | 53 | 171 | 0.9 | 1.7 | 0.00 | 0.00 | 0.00 | 90 | 995.1 |
| 20260505074504 | 52 | 169 | 0.0 | 1.7 | 0.00 | 0.00 | 0.00 | 93 | 995.1 |
| 20260505074004 | 51 | 161 | 0.9 | 1.7 | 0.00 | 0.00 | 0.00 | 95 | 995.1 |
| 20260505073504 | 51 | 191 | 0.0 | 1.7 | 0.00 | 0.00 | 0.00 | 96 | 995.2 |
| 20260505073004 | 50 | 222 | 0.9 | 1.7 | 0.00 | 0.00 | 0.00 | 97 | 995.2 |
| 20260505072504 | 49 | 200 | 0.0 | 1.7 | 0.00 | 0.00 | 0.00 | 98 | 995.3 |
| 20260505072004 | 48 | 159 | 0.0 | 1.7 | 0.00 | 0.00 | 0.00 | 98 | 995.2 |
| 20260505071504 | 48 | 147 | 0.9 | 1.7 | 0.00 | 0.00 | 0.00 | 98 | 995.6 |
| 20260505071004 | 48 | 252 | 0.9 | 0.9 | 0.00 | 0.00 | 0.00 | 98 | 995.6 |
| 20260505070504 | 47 | 315 | 0.0 | 0.9 | 0.00 | 0.00 | 0.00 | 98 | 995.4 |
| 20260505070005 | 47 | 291 | 0.0 | 0.9 | 0.00 | 0.00 | 0.00 | 98 | 995.6 |
| 20260505065714 | 47 | 239 | 0.0 | 1.7 | 0.00 | 0.00 | 0.00 | 98 | 995.4 |
| 20260505065217 | 46 | 217 | 0.0 | 1.7 | 0.00 | 0.00 | 0.00 | 98 | 995.6 |
| 20260505064504 | 46 | 219 | 0.0 | 1.7 | 0.00 | 0.00 | 0.00 | 98 | 995.7 |
| 20260505064004 | 46 | 152 | 0.9 | 1.7 | 0.00 | 0.00 | 0.00 | 98 | 995.5 |
| 20260505063504 | 46 | 131 | 0.0 | 1.7 | 0.00 | 0.00 | 0.00 | 97 | 995.7 |
| 20260505063004 | 46 | 243 | 0.0 | 0.9 | 0.00 | 0.00 | 0.00 | 97 | 995.6 |
| 20260505062504 | 45 | 142 | 0.0 | 1.7 | 0.00 | 0.00 | 0.00 | 99 | 995.7 |
| 20260505062004 | 45 | 155 | 0.0 | 1.7 | 0.00 | 0.00 | 0.00 | 99 | 995.7 |
| 20260505061504 | 45 | 180 | 0.0 | 0.9 | 0.00 | 0.00 | 0.00 | 99 | 995.9 |
| 20260505061216 | 45 | 180 | 0.0 | 0.9 | 0.00 | 0.00 | 0.00 | 99 | 996.0 |
| 20260505060714 | 45 | 270 | 0.0 | 0.9 | 0.00 | 0.00 | 0.00 | 99 | 995.8 |
| 20260505060004 | 44 | 270 | 0.0 | 0.9 | 0.00 | 0.00 | 0.00 | 99 | 995.7 |
| 20260505055504 | 44 | 194 | 0.0 | 1.7 | 0.00 | 0.00 | 0.00 | 99 | 995.8 |
| 20260505055004 | 44 | 162 | 0.0 | 1.7 | 0.00 | 0.00 | 0.00 | 99 | 995.8 |
| 20260505054504 | 43 | 135 | 0.0 | 1.7 | 0.00 | 0.00 | 0.00 | 99 | 995.9 |
| 20260505054004 | 43 | 0 | 0.0 | 0.0 | 0.00 | 0.00 | 0.00 | 99 | 995.6 |
| 20260505053717 | 43 | 0 | 0.0 | 0.0 | 0.00 | 0.00 | 0.00 | 99 | 995.8 |
| 20260505053004 | 43 | 0 | 0.0 | 0.0 | 0.00 | 0.00 | 0.00 | 99 | 995.8 |
| 20260505052718 | 43 | 0 | 0.0 | 0.0 | 0.00 | 0.00 | 0.00 | 99 | 995.6 |
| 20260505052004 | 43 | 0 | 0.0 | 0.0 | 0.00 | 0.00 | 0.00 | 99 | 995.9 |
| 20260505051504 | 43 | 0 | 0.0 | 0.0 | 0.00 | 0.00 | 0.00 | 99 | 995.6 |
| 20260505051216 | 43 | 0 | 0.0 | 0.0 | 0.00 | 0.00 | 0.00 | 99 | 995.7 |
| 20260505050504 | 43 | 0 | 0.0 | 0.0 | 0.00 | 0.00 | 0.00 | 99 | 995.6 |
| 20260505041504 | 43 | 0 | 0.0 | 0.0 | 0.00 | 0.00 | 0.00 | 99 | 995.4 |
| 20260505041004 | 43 | 0 | 0.0 | 0.0 | 0.00 | 0.00 | 0.00 | 99 | 995.5 |
| 20260505040504 | 43 | 0 | 0.0 | 0.0 | 0.00 | 0.00 | 0.00 | 99 | 995.5 |
| 20260505040005 | 44 | 0 | 0.0 | 0.0 | 0.00 | 0.00 | 0.00 | 99 | 995.3 |
| 20260505035504 | 44 | 0 | 0.0 | 0.0 | 0.00 | 0.00 | 0.00 | 99 | 995.3 |
| 20260505035004 | 44 | 0 | 0.0 | 0.0 | 0.00 | 0.00 | 0.00 | 99 | 995.4 |
| 20260505034504 | 44 | 0 | 0.0 | 0.0 | 0.00 | 0.00 | 0.00 | 99 | 995.5 |
| 20260505034004 | 44 | 0 | 0.0 | 0.0 | 0.00 | 0.00 | 0.00 | 99 | 995.5 |
| 20260505033504 | 44 | 0 | 0.0 | 0.0 | 0.00 | 0.00 | 0.00 | 99 | 995.3 |
| 20260505033004 | 44 | 0 | 0.0 | 0.0 | 0.00 | 0.00 | 0.00 | 99 | 995.3 |
| 20260505032504 | 45 | 0 | 0.0 | 0.0 | 0.00 | 0.00 | 0.00 | 99 | 995.3 |
| 20260505032004 | 45 | 0 | 0.0 | 0.0 | 0.00 | 0.00 | 0.00 | 99 | 995.4 |
| 20260505031504 | 45 | 0 | 0.0 | 0.0 | 0.00 | 0.00 | 0.00 | 99 | 995.3 |
| 20260505031004 | 45 | 0 | 0.0 | 0.0 | 0.00 | 0.00 | 0.00 | 99 | 995.4 |
| 20260505030504 | 46 | 0 | 0.0 | 0.0 | 0.00 | 0.00 | 0.00 | 95 | 995.4 |
| 20260505030004 | 46 | 0 | 0.0 | 0.0 | 0.00 | 0.00 | 0.00 | 95 | 995.2 |
| 20260505025504 | 46 | 0 | 0.0 | 0.0 | 0.00 | 0.00 | 0.00 | 95 | 995.2 |
| 20260505025215 | 46 | 0 | 0.0 | 0.0 | 0.00 | 0.00 | 0.00 | 95 | 995.3 |
| 20260505024504 | 46 | 0 | 0.0 | 0.0 | 0.00 | 0.00 | 0.00 | 95 | 995.2 |
| 20260505024004 | 46 | 0 | 0.0 | 0.0 | 0.00 | 0.00 | 0.00 | 95 | 995.3 |
| 20260505023504 | 46 | 0 | 0.0 | 0.0 | 0.00 | 0.00 | 0.00 | 95 | 995.4 |
| 20260505023004 | 46 | 0 | 0.0 | 0.0 | 0.00 | 0.00 | 0.00 | 96 | 995.2 |
| 20260505022504 | 47 | 0 | 0.0 | 0.0 | 0.00 | 0.00 | 0.00 | 96 | 995.1 |
| 20260505022004 | 47 | 0 | 0.0 | 0.0 | 0.00 | 0.00 | 0.00 | 96 | 995.2 |
| 20260505021504 | 47 | 0 | 0.0 | 0.0 | 0.00 | 0.00 | 0.00 | 96 | 995.3 |
| 20260505021004 | 47 | 0 | 0.0 | 0.0 | 0.00 | 0.00 | 0.00 | 96 | 995.3 |
| 20260505020504 | 47 | 0 | 0.0 | 0.0 | 0.00 | 0.00 | 0.00 | 96 | 995.4 |
| 20260505020004 | 48 | 0 | 0.0 | 0.0 | 0.00 | 0.00 | 0.00 | 96 | 995.3 |
| 20260505015717 | 48 | 0 | 0.0 | 0.0 | 0.00 | 0.00 | 0.00 | 96 | 995.2 |
| 20260505015004 | 48 | 0 | 0.0 | 0.0 | 0.00 | 0.00 | 0.00 | 97 | 995.3 |
| 20260505014504 | 49 | 0 | 0.0 | 0.0 | 0.00 | 0.00 | 0.00 | 97 | 995.4 |
| 20260505014004 | 49 | 0 | 0.0 | 0.0 | 0.00 | 0.00 | 0.00 | 97 | 995.5 |
| 20260505013504 | 49 | 0 | 0.0 | 0.0 | 0.00 | 0.00 | 0.00 | 97 | 995.5 |
| 20260505013217 | 49 | 0 | 0.0 | 0.0 | 0.00 | 0.00 | 0.00 | 97 | 995.5 |
| 20260505012504 | 49 | 135 | 0.0 | 0.9 | 0.00 | 0.00 | 0.00 | 97 | 995.5 |
| 20260505012004 | 49 | 135 | 0.0 | 0.9 | 0.00 | 0.00 | 0.00 | 97 | 995.7 |
| 20260505011504 | 49 | 135 | 0.0 | 0.9 | 0.00 | 0.00 | 0.00 | 97 | 995.7 |
| 20260505011004 | 49 | 135 | 0.0 | 0.9 | 0.00 | 0.00 | 0.00 | 97 | 995.7 |
| 20260505010504 | 49 | 135 | 0.0 | 0.9 | 0.00 | 0.00 | 0.00 | 96 | 995.7 |
| 20260505010005 | 49 | 135 | 0.0 | 0.9 | 0.00 | 0.00 | 0.00 | 96 | 995.7 |
| 20260505005504 | 49 | 0 | 0.0 | 0.0 | 0.00 | 0.00 | 0.00 | 96 | 995.5 |
| 20260505005005 | 49 | 0 | 0.0 | 0.0 | 0.00 | 0.00 | 0.00 | 96 | 995.7 |
| 20260505004504 | 49 | 0 | 0.0 | 0.0 | 0.00 | 0.00 | 0.00 | 96 | 995.7 |
| 20260505004217 | 49 | 0 | 0.0 | 0.0 | 0.00 | 0.00 | 0.00 | 96 | 995.6 |
| 20260505003504 | 49 | 0 | 0.0 | 0.0 | 0.00 | 0.00 | 0.00 | 96 | 995.9 |